UZB569 UAAA-UZTT

Flight info

Callsign UZB569
Flight time 1h 0m
Altitude 40000
Route TIPSA L143 TISIB TISIB1W
Aircraft B789/H-SDE1E2E3FGHIJ2J3J4J5M1RWXY/LB1D1

Departure

Time 2026-04-27 14:16
Airport Almaty International Airport (UAAA)

Arrival

Time 2026-04-27 15:16
Airport Tashkent International Airport (UZTT)
Time Latitude Longitude Altitude Speed Heading
2026-04-27 14:04 43.34866 77.01393 2237 ft 0 kts 69°
2026-04-27 14:12 43.34867 77.01394 2237 ft 0 kts 69°
2026-04-27 14:12 43.34868 77.01418 2237 ft 7 kts 90°
2026-04-27 14:13 43.34833 77.01522 2237 ft 13 kts 124°
2026-04-27 14:13 43.34817 77.01653 2237 ft 15 kts 94°
2026-04-27 14:13 43.34810 77.01797 2237 ft 15 kts 94°
2026-04-27 14:13 43.34803 77.01942 2237 ft 15 kts 94°
2026-04-27 14:14 43.34796 77.02085 2237 ft 15 kts 93°
2026-04-27 14:14 43.34788 77.02224 2237 ft 14 kts 95°
2026-04-27 14:14 43.34778 77.02359 2237 ft 14 kts 95°
2026-04-27 14:14 43.34768 77.02504 2238 ft 15 kts 95°
2026-04-27 14:15 43.34794 77.02646 2237 ft 16 kts 57°
2026-04-27 14:15 43.34886 77.02830 2231 ft 46 kts 56°
2026-04-27 14:15 43.35230 77.03526 2240 ft 129 kts 56°
2026-04-27 14:15 43.35849 77.04797 2457 ft 178 kts 62°
2026-04-27 14:16 43.36541 77.06242 3383 ft 180 kts 55°
2026-04-27 14:16 43.37231 77.07642 4418 ft 172 kts 54°
2026-04-27 14:16 43.37983 77.08846 5253 ft 168 kts 28°
2026-04-27 14:16 43.39118 77.08896 5923 ft 166 kts 343°
2026-04-27 14:17 43.40102 77.08139 6595 ft 166 kts 310°
2026-04-27 14:17 43.40612 77.06765 7252 ft 160 kts 283°
2026-04-27 14:17 43.40790 77.05228 7715 ft 167 kts 280°
2026-04-27 14:17 43.41019 77.03609 8182 ft 179 kts 281°
2026-04-27 14:18 43.41290 77.01852 8642 ft 197 kts 282°
2026-04-27 14:18 43.41594 76.99923 9147 ft 215 kts 282°
2026-04-27 14:18 43.41915 76.97882 9646 ft 221 kts 281°
2026-04-27 14:18 43.42250 76.95739 10135 ft 239 kts 281°
2026-04-27 14:19 43.42618 76.93374 10559 ft 269 kts 281°
2026-04-27 14:19 43.43032 76.90717 11019 ft 299 kts 281°
2026-04-27 14:19 43.43492 76.87762 11508 ft 332 kts 281°
2026-04-27 14:19 43.43996 76.84516 12035 ft 363 kts 281°
2026-04-27 14:20 43.44544 76.80986 12554 ft 389 kts 281°
2026-04-27 14:20 43.45113 76.77314 13081 ft 395 kts 281°
2026-04-27 14:20 43.45689 76.73584 13595 ft 398 kts 281°
2026-04-27 14:20 43.46263 76.69859 14081 ft 401 kts 281°
2026-04-27 14:21 43.46838 76.66110 14522 ft 400 kts 281°
2026-04-27 14:21 43.47415 76.62341 14960 ft 402 kts 280°
2026-04-27 14:21 43.47986 76.58610 15391 ft 404 kts 280°
2026-04-27 14:21 43.48565 76.54816 15841 ft 406 kts 280°
2026-04-27 14:22 43.49145 76.51005 16287 ft 408 kts 280°
2026-04-27 14:22 43.49727 76.47172 16719 ft 410 kts 280°
2026-04-27 14:22 43.50269 76.43318 17120 ft 411 kts 275°
2026-04-27 14:22 43.50259 76.39395 17618 ft 409 kts 264°
2026-04-27 14:23 43.49959 76.35512 18170 ft 407 kts 262°
2026-04-27 14:23 43.49597 76.31650 18632 ft 407 kts 262°
2026-04-27 14:23 43.49379 76.27760 19045 ft 408 kts 266°
2026-04-27 14:23 43.49254 76.23848 19440 ft 409 kts 266°
2026-04-27 14:24 43.49073 76.19927 19830 ft 410 kts 264°
2026-04-27 14:24 43.48836 76.16005 20199 ft 412 kts 264°
2026-04-27 14:24 43.48614 76.12067 20567 ft 414 kts 264°
2026-04-27 14:24 43.48417 76.08105 20907 ft 416 kts 265°
2026-04-27 14:25 43.48216 76.04126 21273 ft 417 kts 264°
2026-04-27 14:25 43.47998 76.00130 21615 ft 419 kts 264°
2026-04-27 14:25 43.47776 75.96119 21950 ft 421 kts 264°
2026-04-27 14:25 43.47559 75.92091 22293 ft 423 kts 264°
2026-04-27 14:26 43.47342 75.88053 22716 ft 422 kts 264°
2026-04-27 14:26 43.47124 75.84080 23164 ft 421 kts 264°
2026-04-27 14:26 43.46901 75.80068 23613 ft 420 kts 264°
2026-04-27 14:26 43.46677 75.76057 23976 ft 420 kts 264°
2026-04-27 14:27 43.46454 75.72055 24307 ft 420 kts 264°
2026-04-27 14:27 43.46228 75.68046 24620 ft 420 kts 264°
2026-04-27 14:27 43.46000 75.64032 24933 ft 421 kts 264°
2026-04-27 14:27 43.45771 75.60011 25241 ft 421 kts 264°
2026-04-27 14:28 43.45540 75.55987 25543 ft 422 kts 264°
2026-04-27 14:28 43.45307 75.51951 25817 ft 423 kts 264°
2026-04-27 14:28 43.45072 75.47910 26095 ft 425 kts 264°
2026-04-27 14:28 43.44835 75.43856 26363 ft 426 kts 264°
2026-04-27 14:29 43.44596 75.39789 26635 ft 427 kts 263°
2026-04-27 14:29 43.44355 75.35708 26896 ft 428 kts 263°
2026-04-27 14:29 43.44111 75.31620 27155 ft 430 kts 263°
2026-04-27 14:29 43.43804 75.27523 27398 ft 430 kts 258°
2026-04-27 14:30 43.43024 75.23560 27659 ft 429 kts 248°
2026-04-27 14:30 43.41751 75.19850 27896 ft 429 kts 239°
2026-04-27 14:30 43.40018 75.16505 28135 ft 430 kts 229°
2026-04-27 14:30 43.38060 75.13456 28354 ft 432 kts 229°
2026-04-27 14:31 43.36224 75.10190 28574 ft 432 kts 236°
2026-04-27 14:31 43.34513 75.06770 28783 ft 434 kts 235°
2026-04-27 14:31 43.32790 75.03362 28994 ft 435 kts 235°
2026-04-27 14:31 43.31063 74.99927 29219 ft 437 kts 236°
2026-04-27 14:32 43.29337 74.96484 29447 ft 438 kts 236°
2026-04-27 14:32 43.27600 74.93029 29661 ft 440 kts 235°
2026-04-27 14:32 43.25855 74.89575 29907 ft 441 kts 235°
2026-04-27 14:32 43.24105 74.86111 30111 ft 443 kts 235°
2026-04-27 14:33 43.22349 74.82632 30294 ft 444 kts 235°
2026-04-27 14:33 43.20585 74.79143 30465 ft 445 kts 235°
2026-04-27 14:33 43.18819 74.75658 30678 ft 445 kts 235°
2026-04-27 14:33 43.17075 74.72221 30923 ft 445 kts 235°
2026-04-27 14:34 43.15307 74.68738 31147 ft 445 kts 235°
2026-04-27 14:34 43.13537 74.65254 31369 ft 445 kts 235°
2026-04-27 14:34 43.11767 74.61777 31598 ft 445 kts 235°
2026-04-27 14:34 43.09941 74.58359 31815 ft 445 kts 230°
2026-04-27 14:35 43.07813 74.55280 32034 ft 445 kts 227°
2026-04-27 14:35 43.05647 74.52255 32257 ft 445 kts 226°
2026-04-27 14:35 43.03470 74.49237 32483 ft 445 kts 227°
2026-04-27 14:35 43.01300 74.46221 32697 ft 445 kts 227°
2026-04-27 14:36 42.99128 74.43196 32904 ft 445 kts 227°
2026-04-27 14:36 42.96953 74.40172 33115 ft 446 kts 227°
2026-04-27 14:36 42.94777 74.37156 33284 ft 446 kts 227°
2026-04-27 14:36 42.92596 74.34138 33482 ft 446 kts 227°
2026-04-27 14:37 42.90420 74.31125 33772 ft 445 kts 227°
2026-04-27 14:37 42.88281 74.28167 34089 ft 443 kts 227°
2026-04-27 14:37 42.86123 74.25186 34340 ft 441 kts 227°
2026-04-27 14:37 42.83972 74.22220 34579 ft 439 kts 227°
2026-04-27 14:38 42.81827 74.19263 34812 ft 438 kts 227°
2026-04-27 14:38 42.79684 74.16312 35061 ft 437 kts 227°
2026-04-27 14:38 42.77545 74.13370 35293 ft 436 kts 227°
2026-04-27 14:38 42.75412 74.10440 35522 ft 435 kts 227°
2026-04-27 14:39 42.73282 74.07516 35735 ft 434 kts 227°
2026-04-27 14:39 42.71160 74.04606 35926 ft 433 kts 227°
2026-04-27 14:39 42.69037 74.01700 36115 ft 433 kts 227°
2026-04-27 14:40 42.64702 73.95790 36118 ft 452 kts 227°
2026-04-27 14:40 42.62457 73.92705 36128 ft 466 kts 227°
2026-04-27 14:40 42.60165 73.89567 36117 ft 468 kts 227°
2026-04-27 14:41 42.55559 73.83315 36121 ft 469 kts 227°
2026-04-27 14:41 42.50941 73.77032 36119 ft 467 kts 227°
2026-04-27 14:42 42.46361 73.70828 36118 ft 466 kts 227°
2026-04-27 14:42 42.41781 73.64595 36112 ft 462 kts 230°
2026-04-27 14:43 42.38164 73.57384 36124 ft 463 kts 244°
2026-04-27 14:43 42.35313 73.49560 36125 ft 463 kts 244°
2026-04-27 14:44 42.32481 73.41775 36123 ft 461 kts 244°
2026-04-27 14:44 42.29619 73.33949 36115 ft 463 kts 244°
2026-04-27 14:45 42.26779 73.26194 36107 ft 464 kts 243°
2026-04-27 14:45 42.23914 73.18397 36093 ft 464 kts 243°
2026-04-27 14:46 42.21038 73.10592 36095 ft 463 kts 243°
2026-04-27 14:46 42.18168 73.02822 36085 ft 463 kts 243°
2026-04-27 14:47 42.15289 72.95054 36075 ft 464 kts 243°
2026-04-27 14:47 42.12391 72.87248 36035 ft 467 kts 243°
2026-04-27 14:48 42.09473 72.79417 36050 ft 467 kts 243°
2026-04-27 14:48 42.05098 72.67712 36044 ft 465 kts 243°
2026-04-27 14:49 42.02188 72.59953 36053 ft 467 kts 243°
2026-04-27 14:49 41.99253 72.52147 36038 ft 468 kts 243°
2026-04-27 14:50 41.96792 72.45620 36037 ft 465 kts 243°
2026-04-27 14:50 41.93869 72.37885 36054 ft 468 kts 243°
2026-04-27 14:51 41.90910 72.30079 36045 ft 468 kts 243°
2026-04-27 14:51 41.87950 72.22288 36058 ft 469 kts 243°
2026-04-27 14:52 41.84971 72.14470 36032 ft 469 kts 243°
2026-04-27 14:52 41.81991 72.06668 36031 ft 470 kts 243°
2026-04-27 14:53 41.79017 71.98905 36029 ft 470 kts 243°
2026-04-27 14:53 41.76024 71.91113 36030 ft 470 kts 243°
2026-04-27 14:54 41.73016 71.83303 36021 ft 472 kts 243°
2026-04-27 14:54 41.70003 71.75502 36002 ft 471 kts 243°
2026-04-27 14:55 41.66989 71.67718 36005 ft 471 kts 243°
2026-04-27 14:55 41.63982 71.59974 36011 ft 472 kts 243°
2026-04-27 14:56 41.60956 71.52200 35509 ft 470 kts 243°
2026-04-27 14:56 41.59434 71.48299 34860 ft 474 kts 243°
2026-04-27 14:56 41.57902 71.44376 34187 ft 479 kts 243°
2026-04-27 14:57 41.56350 71.40410 33450 ft 483 kts 243°
2026-04-27 14:57 41.54794 71.36436 32724 ft 484 kts 243°
2026-04-27 14:57 41.53229 71.32446 31984 ft 487 kts 243°
2026-04-27 14:57 41.51649 71.28422 31214 ft 490 kts 242°
2026-04-27 14:58 41.50057 71.24374 30379 ft 494 kts 242°
2026-04-27 14:58 41.48474 71.20356 29524 ft 483 kts 242°
2026-04-27 14:58 41.46930 71.16441 28733 ft 471 kts 242°
2026-04-27 14:58 41.45426 71.12631 27954 ft 468 kts 242°
2026-04-27 14:59 41.43907 71.08789 27181 ft 467 kts 242°
2026-04-27 14:59 41.42396 71.04973 26419 ft 465 kts 242°
2026-04-27 14:59 41.40883 71.01155 25676 ft 464 kts 242°
2026-04-27 14:59 41.39374 70.97355 24917 ft 463 kts 242°
2026-04-27 15:00 41.37867 70.93567 24181 ft 462 kts 242°
2026-04-27 15:00 41.36376 70.89835 23420 ft 462 kts 242°
2026-04-27 15:00 41.34869 70.86075 22675 ft 458 kts 242°
2026-04-27 15:00 41.33378 70.82352 21942 ft 452 kts 242°
2026-04-27 15:01 41.31910 70.78686 21226 ft 444 kts 242°
2026-04-27 15:01 41.30464 70.75085 20524 ft 438 kts 242°
2026-04-27 15:01 41.29036 70.71534 19825 ft 432 kts 242°
2026-04-27 15:01 41.27628 70.68036 19159 ft 426 kts 242°
2026-04-27 15:02 41.26237 70.64584 18488 ft 421 kts 242°
2026-04-27 15:02 41.24861 70.61172 17791 ft 416 kts 242°
2026-04-27 15:02 41.23522 70.57854 17162 ft 409 kts 242°
2026-04-27 15:02 41.22187 70.54552 16506 ft 403 kts 242°
2026-04-27 15:03 41.20864 70.51284 15825 ft 400 kts 242°
2026-04-27 15:03 41.19543 70.48024 15192 ft 403 kts 242°
2026-04-27 15:03 41.18209 70.44735 14566 ft 407 kts 242°
2026-04-27 15:03 41.16861 70.41414 13929 ft 410 kts 242°
2026-04-27 15:04 41.15500 70.38066 13246 ft 413 kts 242°
2026-04-27 15:04 41.14136 70.34716 12584 ft 407 kts 242°
2026-04-27 15:04 41.12819 70.31483 11977 ft 389 kts 242°
2026-04-27 15:04 41.11558 70.28392 11390 ft 373 kts 242°
2026-04-27 15:05 41.10585 70.25311 11080 ft 350 kts 258°
2026-04-27 15:05 41.10404 70.22214 10968 ft 327 kts 276°
2026-04-27 15:05 41.10861 70.19386 10837 ft 310 kts 285°
2026-04-27 15:05 41.11422 70.16674 10709 ft 301 kts 286°
2026-04-27 15:06 41.11993 70.14042 10585 ft 293 kts 287°
2026-04-27 15:06 41.12549 70.11466 10465 ft 287 kts 286°
2026-04-27 15:06 41.13083 70.08944 10302 ft 282 kts 286°
2026-04-27 15:06 41.13613 70.06437 10046 ft 281 kts 286°
2026-04-27 15:07 41.13963 70.04793 9963 ft 280 kts 286°
2026-04-27 15:07 41.14673 70.01446 9726 ft 282 kts 286°
2026-04-27 15:07 41.15208 69.98919 9346 ft 285 kts 286°
2026-04-27 15:07 41.15741 69.96394 9069 ft 284 kts 286°
2026-04-27 15:08 41.16273 69.93874 8791 ft 283 kts 286°
2026-04-27 15:08 41.16796 69.91396 8548 ft 280 kts 286°
2026-04-27 15:08 41.17319 69.88913 8291 ft 281 kts 286°
2026-04-27 15:08 41.17850 69.86392 7887 ft 286 kts 285°
2026-04-27 15:09 41.18389 69.83828 7409 ft 290 kts 286°
2026-04-27 15:09 41.18925 69.81272 7260 ft 283 kts 286°
2026-04-27 15:09 41.19449 69.78771 7019 ft 280 kts 286°
2026-04-27 15:09 41.19969 69.76289 6762 ft 278 kts 286°
2026-04-27 15:10 41.20485 69.73824 6501 ft 276 kts 286°
2026-04-27 15:10 41.20998 69.71369 6221 ft 275 kts 285°
2026-04-27 15:10 41.21508 69.68927 5952 ft 273 kts 285°
2026-04-27 15:10 41.22013 69.66501 5685 ft 272 kts 285°
2026-04-27 15:11 41.22515 69.64089 5408 ft 270 kts 285°
2026-04-27 15:11 41.23015 69.61687 5150 ft 269 kts 285°
2026-04-27 15:11 41.23510 69.59301 4875 ft 267 kts 285°
2026-04-27 15:11 41.23997 69.56957 4608 ft 265 kts 285°
2026-04-27 15:12 41.24485 69.54603 4342 ft 263 kts 285°
2026-04-27 15:12 41.24957 69.52320 4132 ft 250 kts 286°
2026-04-27 15:12 41.25404 69.50145 3901 ft 237 kts 288°
2026-04-27 15:12 41.25831 69.48081 3667 ft 225 kts 287°
2026-04-27 15:13 41.26233 69.46137 3446 ft 211 kts 287°
2026-04-27 15:13 41.26601 69.44341 3216 ft 192 kts 288°
2026-04-27 15:13 41.26946 69.42664 3042 ft 182 kts 289°
2026-04-27 15:13 41.27238 69.41047 2859 ft 173 kts 280°
2026-04-27 15:14 41.27050 69.39497 2666 ft 170 kts 262°
2026-04-27 15:14 41.26907 69.37992 2418 ft 165 kts 268°
2026-04-27 15:14 41.26769 69.36533 2210 ft 157 kts 266°
2026-04-27 15:14 41.26606 69.35069 2076 ft 160 kts 265°
2026-04-27 15:15 41.26445 69.33627 1939 ft 158 kts 265°
2026-04-27 15:15 41.26293 69.32173 1773 ft 156 kts 265°
2026-04-27 15:15 41.26138 69.30750 1523 ft 158 kts 265°
2026-04-27 15:15 41.25978 69.29336 1420 ft 145 kts 265°
2026-04-27 15:16 41.25858 69.28230 1404 ft 86 kts 260°
2026-04-27 15:16 41.25804 69.27731 1408 ft 32 kts 262°
2026-04-27 15:16 41.25815 69.27532 1404 ft 17 kts 311°
2026-04-27 15:16 41.25899 69.27433 1405 ft 17 kts 319°
2026-04-27 15:17 41.25981 69.27330 1403 ft 12 kts 294°
2026-04-27 15:17 41.25980 69.27226 1401 ft 12 kts 263°
2026-04-27 15:17 41.25988 69.27133 1399 ft 11 kts 290°
2026-04-27 15:17 41.25991 69.27096 1398 ft 14 kts 270°
2026-04-27 15:18 41.26095 69.26941 1401 ft 17 kts 323°
2026-04-27 15:18 41.26149 69.26892 1395 ft 2 kts 343°
2026-04-27 15:18 41.26173 69.26888 1398 ft 3 kts 353°
2026-04-27 15:18 41.26183 69.26886 1402 ft 0 kts 353°